URO783 YMML-YSSY

Flight info

Callsign URO783
Flight time 1h 8m
Altitude 39000
Route DOSEL2/34 DOSEL Y59 RIVET
Aircraft A346/H-SDE2E3FGHIJ3J4J5M1RWXY/LB1D1

Departure

Time 2026-05-04 07:06
Airport Melbourne Airport (YMML)

Arrival

Time 2026-05-04 08:14
Airport Sydney Kingsford Smith International Airport (YSSY)
Time Latitude Longitude Altitude Speed Heading
2026-05-04 06:33 -37.67811 144.84700 451 ft 0 kts 128°
2026-05-04 06:53 -37.67811 144.84698 451 ft 1 kts 128°
2026-05-04 06:53 -37.67802 144.84685 451 ft 2 kts 129°
2026-05-04 06:53 -37.67792 144.84671 451 ft 2 kts 130°
2026-05-04 06:54 -37.67783 144.84656 451 ft 2 kts 129°
2026-05-04 06:54 -37.67773 144.84641 451 ft 2 kts 113°
2026-05-04 06:54 -37.67771 144.84622 451 ft 2 kts 82°
2026-05-04 06:54 -37.67776 144.84604 451 ft 2 kts 56°
2026-05-04 06:55 -37.67786 144.84592 451 ft 2 kts 29°
2026-05-04 06:55 -37.67800 144.84586 451 ft 2 kts
2026-05-04 06:55 -37.67815 144.84587 451 ft 2 kts 344°
2026-05-04 06:55 -37.67829 144.84592 451 ft 2 kts 346°
2026-05-04 06:56 -37.67844 144.84596 451 ft 2 kts 349°
2026-05-04 06:57 -37.67925 144.84618 451 ft 0 kts 348°
2026-05-04 06:59 -37.67909 144.84615 451 ft 4 kts 352°
2026-05-04 07:01 -37.68121 144.84442 451 ft 14 kts 172°
2026-05-04 07:01 -37.68225 144.84460 451 ft 15 kts 171°
2026-05-04 07:02 -37.68331 144.84471 451 ft 15 kts 188°
2026-05-04 07:02 -37.68422 144.84412 451 ft 14 kts 214°
2026-05-04 07:02 -37.68491 144.84351 451 ft 9 kts 214°
2026-05-04 07:02 -37.68535 144.84293 451 ft 9 kts 239°
2026-05-04 07:03 -37.68555 144.84203 451 ft 10 kts 266°
2026-05-04 07:03 -37.68559 144.84131 451 ft 6 kts 279°
2026-05-04 07:03 -37.68525 144.84108 451 ft 3 kts 348°
2026-05-04 07:03 -37.68502 144.84097 451 ft 3 kts 342°
2026-05-04 07:04 -37.68499 144.84096 451 ft 0 kts 342°
2026-05-04 07:05 -37.68495 144.84096 451 ft 4 kts 342°
2026-05-04 07:05 -37.68224 144.84035 451 ft 80 kts 352°
2026-05-04 07:05 -37.67430 144.83887 452 ft 147 kts 352°
2026-05-04 07:06 -37.65260 144.83496 1776 ft 157 kts 349°
2026-05-04 07:06 -37.64193 144.83292 2505 ft 158 kts 348°
2026-05-04 07:06 -37.63073 144.83077 3021 ft 169 kts 347°
2026-05-04 07:07 -37.61883 144.82822 3511 ft 182 kts 346°
2026-05-04 07:08 -37.50247 144.87637 7383 ft 322 kts 21°
2026-05-04 07:09 -37.48203 144.88887 8268 ft 330 kts 20°
2026-05-04 07:09 -37.46110 144.90161 8816 ft 348 kts 22°
2026-05-04 07:09 -37.44011 144.91879 9508 ft 368 kts 34°
2026-05-04 07:09 -37.42200 144.94188 10437 ft 379 kts 47°
2026-05-04 07:10 -37.40636 144.96870 11376 ft 385 kts 50°
2026-05-04 07:10 -37.39084 144.99651 12250 ft 391 kts 51°
2026-05-04 07:12 -37.27749 145.19795 18003 ft 420 kts 50°
2026-05-04 07:12 -37.26046 145.22792 18774 ft 423 kts 50°
2026-05-04 07:12 -37.24323 145.25825 19663 ft 424 kts 50°
2026-05-04 07:12 -37.22641 145.28790 20774 ft 417 kts 49°
2026-05-04 07:13 -37.20960 145.31744 21607 ft 418 kts 48°
2026-05-04 07:13 -37.19252 145.34731 22280 ft 422 kts 48°
2026-05-04 07:13 -37.17551 145.37701 22908 ft 427 kts 48°
2026-05-04 07:14 -37.10522 145.49986 25312 ft 441 kts 46°
2026-05-04 07:14 -37.08733 145.53102 25855 ft 445 kts 46°
2026-05-04 07:15 -37.06919 145.56258 26382 ft 449 kts 46°
2026-05-04 07:15 -37.05080 145.59451 26875 ft 453 kts 46°
2026-05-04 07:15 -37.03242 145.62639 27371 ft 457 kts 46°
2026-05-04 07:15 -37.01366 145.65892 27862 ft 461 kts 45°
2026-05-04 07:16 -36.99497 145.69132 28352 ft 463 kts 45°
2026-05-04 07:16 -36.97617 145.72389 28873 ft 465 kts 45°
2026-05-04 07:16 -36.95698 145.75709 29345 ft 468 kts 44°
2026-05-04 07:16 -36.93789 145.79004 29770 ft 472 kts 45°
2026-05-04 07:17 -36.91869 145.82320 30312 ft 472 kts 45°
2026-05-04 07:17 -36.89974 145.85590 30923 ft 470 kts 45°
2026-05-04 07:17 -36.88050 145.88907 31506 ft 468 kts 45°
2026-05-04 07:17 -36.86143 145.92194 32064 ft 468 kts 45°
2026-05-04 07:18 -36.84243 145.95462 32570 ft 468 kts 44°
2026-05-04 07:18 -36.82349 145.98715 33052 ft 468 kts 44°
2026-05-04 07:18 -36.80425 146.02011 33469 ft 469 kts 45°
2026-05-04 07:18 -36.78517 146.05281 33982 ft 468 kts 45°
2026-05-04 07:19 -36.76588 146.08585 34446 ft 469 kts 45°
2026-05-04 07:19 -36.74671 146.11861 34917 ft 469 kts 45°
2026-05-04 07:19 -36.72756 146.15135 35375 ft 468 kts 45°
2026-05-04 07:19 -36.70859 146.18376 35783 ft 469 kts 45°
2026-05-04 07:20 -36.68923 146.21678 36162 ft 469 kts 45°
2026-05-04 07:20 -36.67012 146.24936 36484 ft 471 kts 45°
2026-05-04 07:20 -36.65083 146.28218 36781 ft 473 kts 46°
2026-05-04 07:20 -36.63139 146.31526 37129 ft 473 kts 46°
2026-05-04 07:22 -36.49343 146.54909 38939 ft 487 kts 46°
2026-05-04 07:22 -36.47350 146.58273 38970 ft 489 kts 46°
2026-05-04 07:23 -36.43301 146.65103 38981 ft 489 kts 46°
2026-05-04 07:23 -36.39253 146.71918 38973 ft 489 kts 45°
2026-05-04 07:24 -36.35189 146.78742 38986 ft 489 kts 45°
2026-05-04 07:24 -36.31142 146.85519 38984 ft 489 kts 45°
2026-05-04 07:26 -36.14946 147.12517 38979 ft 491 kts 45°
2026-05-04 07:27 -36.10851 147.19313 38989 ft 491 kts 45°
2026-05-04 07:27 -36.06802 147.26021 38989 ft 491 kts 45°
2026-05-04 07:28 -36.02701 147.32800 38988 ft 491 kts 45°
2026-05-04 07:28 -35.98623 147.39522 38999 ft 492 kts 45°
2026-05-04 07:29 -35.94514 147.46286 39000 ft 492 kts 45°
2026-05-04 07:29 -35.90418 147.53014 39002 ft 491 kts 45°
2026-05-04 07:30 -35.86324 147.59717 39004 ft 493 kts 45°
2026-05-04 07:30 -35.82188 147.66487 39004 ft 493 kts 45°
2026-05-04 07:31 -35.78083 147.73200 39016 ft 492 kts 44°
2026-05-04 07:33 -35.61610 147.99970 39020 ft 492 kts 44°
2026-05-04 07:33 -35.57488 148.06639 39049 ft 492 kts 44°
2026-05-04 07:34 -35.53361 148.13303 39015 ft 491 kts 44°
2026-05-04 07:34 -35.49229 148.19955 39020 ft 491 kts 45°
2026-05-04 07:35 -35.45103 148.26584 39033 ft 490 kts 44°
2026-05-04 07:35 -35.40993 148.33186 39041 ft 490 kts 44°
2026-05-04 07:36 -35.36871 148.39793 39044 ft 489 kts 44°
2026-05-04 07:38 -35.22788 148.62283 39025 ft 461 kts 44°
2026-05-04 07:38 -35.20838 148.65370 39029 ft 461 kts 43°
2026-05-04 07:38 -35.18863 148.68501 38830 ft 460 kts 43°
2026-05-04 07:38 -35.16934 148.71559 38611 ft 460 kts 43°
2026-05-04 07:39 -35.14962 148.74684 38409 ft 460 kts 43°
2026-05-04 07:39 -35.13040 148.77733 38014 ft 458 kts 43°
2026-05-04 07:39 -35.11083 148.80826 37066 ft 466 kts 43°
2026-05-04 07:39 -35.09088 148.83977 36382 ft 465 kts 43°
2026-05-04 07:40 -35.07130 148.87074 35834 ft 462 kts 43°
2026-05-04 07:40 -35.05184 148.90152 35289 ft 459 kts 43°
2026-05-04 07:40 -35.03243 148.93216 34764 ft 457 kts 42°
2026-05-04 07:40 -35.01310 148.96257 34217 ft 459 kts 42°
2026-05-04 07:41 -34.99364 148.99315 33685 ft 459 kts 42°
2026-05-04 07:41 -34.97427 149.02364 32985 ft 452 kts 42°
2026-05-04 07:41 -34.95517 149.05373 32288 ft 442 kts 43°
2026-05-04 07:41 -34.93665 149.08287 31659 ft 431 kts 43°
2026-05-04 07:42 -34.91859 149.11124 31107 ft 421 kts 43°
2026-05-04 07:42 -34.90077 149.13911 30707 ft 417 kts 42°
2026-05-04 07:42 -34.88294 149.16696 30398 ft 417 kts 43°
2026-05-04 07:42 -34.86523 149.19461 30008 ft 412 kts 43°
2026-05-04 07:43 -34.84782 149.22183 29442 ft 407 kts 43°
2026-05-04 07:43 -34.83066 149.24867 28951 ft 400 kts 43°
2026-05-04 07:43 -34.81372 149.27512 28397 ft 397 kts 43°
2026-05-04 07:43 -34.79662 149.30170 27924 ft 399 kts 43°
2026-05-04 07:44 -34.77954 149.32823 27514 ft 401 kts 43°
2026-05-04 07:44 -34.76257 149.35492 27151 ft 403 kts 44°
2026-05-04 07:44 -34.74628 149.38287 26712 ft 401 kts 47°
2026-05-04 07:44 -34.73160 149.41106 26255 ft 396 kts 50°
2026-05-04 07:45 -34.71810 149.44014 25993 ft 392 kts 53°
2026-05-04 07:45 -34.70543 149.46922 25674 ft 393 kts 53°
2026-05-04 07:45 -34.69268 149.49855 25366 ft 392 kts 53°
2026-05-04 07:45 -34.68002 149.52760 25092 ft 392 kts 53°
2026-05-04 07:46 -34.66715 149.55705 25033 ft 391 kts 53°
2026-05-04 07:46 -34.65460 149.58589 24805 ft 385 kts 53°
2026-05-04 07:46 -34.64236 149.61400 24370 ft 378 kts 53°
2026-05-04 07:46 -34.63013 149.64197 23765 ft 376 kts 53°
2026-05-04 07:47 -34.61779 149.67006 23175 ft 376 kts 52°
2026-05-04 07:47 -34.60544 149.69809 22742 ft 377 kts 53°
2026-05-04 07:47 -34.59300 149.72633 22349 ft 379 kts 53°
2026-05-04 07:49 -34.50497 149.92629 19661 ft 382 kts 54°
2026-05-04 07:49 -34.49262 149.95428 19270 ft 379 kts 54°
2026-05-04 07:49 -34.48018 149.98244 18892 ft 377 kts 54°
2026-05-04 07:50 -34.46788 150.01025 18509 ft 374 kts 54°
2026-05-04 07:50 -34.45576 150.03763 18137 ft 371 kts 54°
2026-05-04 07:50 -34.44350 150.06528 17760 ft 369 kts 55°
2026-05-04 07:50 -34.43155 150.09224 17375 ft 368 kts 55°
2026-05-04 07:51 -34.41938 150.11966 16982 ft 365 kts 55°
2026-05-04 07:51 -34.40747 150.14648 16609 ft 363 kts 54°
2026-05-04 07:51 -34.39549 150.17345 16214 ft 361 kts 55°
2026-05-04 07:51 -34.38373 150.19984 15826 ft 360 kts 55°
2026-05-04 07:52 -34.37177 150.22669 15433 ft 358 kts 54°
2026-05-04 07:52 -34.36000 150.25305 15055 ft 356 kts 55°
2026-05-04 07:52 -34.34827 150.27933 14666 ft 355 kts 55°
2026-05-04 07:52 -34.33677 150.30508 14286 ft 352 kts 54°
2026-05-04 07:53 -34.32513 150.33113 13909 ft 351 kts 54°
2026-05-04 07:54 -34.24606 150.50801 11237 ft 315 kts 56°
2026-05-04 07:55 -34.23602 150.53058 10913 ft 302 kts 55°
2026-05-04 07:55 -34.22594 150.55302 10593 ft 300 kts 55°
2026-05-04 07:55 -34.21612 150.57483 10472 ft 299 kts 55°
2026-05-04 07:55 -34.20615 150.59694 10381 ft 299 kts 55°
2026-05-04 07:56 -34.19612 150.61923 10283 ft 298 kts 56°
2026-05-04 07:56 -34.18626 150.64122 10195 ft 297 kts 55°
2026-05-04 07:56 -34.17665 150.66263 10048 ft 286 kts 55°
2026-05-04 07:56 -34.16723 150.68367 10002 ft 280 kts 55°
2026-05-04 07:57 -34.15807 150.70406 9914 ft 277 kts 55°
2026-05-04 07:57 -34.14895 150.72430 9620 ft 272 kts 55°
2026-05-04 07:57 -34.13993 150.74434 9317 ft 267 kts 54°
2026-05-04 07:57 -34.13126 150.76360 9007 ft 261 kts 54°
2026-05-04 07:58 -34.12261 150.78273 8717 ft 257 kts 54°
2026-05-04 07:58 -34.11405 150.80167 8408 ft 256 kts 54°
2026-05-04 07:58 -34.10554 150.82048 8124 ft 255 kts 54°
2026-05-04 07:58 -34.09708 150.83919 7951 ft 253 kts 54°
2026-05-04 07:59 -34.08873 150.85770 7979 ft 255 kts 55°
2026-05-04 07:59 -34.08026 150.87659 7995 ft 254 kts 55°
2026-05-04 07:59 -34.07177 150.89543 7988 ft 255 kts 55°
2026-05-04 07:59 -34.06332 150.91419 7996 ft 253 kts 55°
2026-05-04 08:00 -34.05510 150.93254 7974 ft 244 kts 55°
2026-05-04 08:00 -34.04704 150.95041 7979 ft 242 kts 55°
2026-05-04 08:00 -34.03906 150.96808 7986 ft 242 kts 55°
2026-05-04 08:02 -34.09523 151.08189 6355 ft 257 kts 167°
2026-05-04 08:02 -34.11264 151.08667 6044 ft 254 kts 172°
2026-05-04 08:02 -34.13009 151.09059 5996 ft 253 kts 172°
2026-05-04 08:03 -34.14739 151.09468 5997 ft 254 kts 170°
2026-05-04 08:03 -34.16460 151.09949 5999 ft 254 kts 169°
2026-05-04 08:03 -34.18188 151.10457 6006 ft 255 kts 169°
2026-05-04 08:03 -34.19907 151.10968 5997 ft 255 kts 168°
2026-05-04 08:04 -34.21637 151.11502 5990 ft 256 kts 168°
2026-05-04 08:04 -34.23367 151.12041 5990 ft 256 kts 168°
2026-05-04 08:04 -34.25097 151.12552 5988 ft 255 kts 169°
2026-05-04 08:04 -34.26816 151.13052 5981 ft 249 kts 169°
2026-05-04 08:05 -34.28479 151.13586 5966 ft 245 kts 159°
2026-05-04 08:05 -34.29844 151.14763 5839 ft 245 kts 124°
2026-05-04 08:05 -34.30524 151.16577 5652 ft 236 kts 93°
2026-05-04 08:05 -34.30461 151.18498 5407 ft 224 kts 62°
2026-05-04 08:06 -34.29615 151.19963 5164 ft 208 kts 32°
2026-05-04 08:06 -34.28447 151.20938 4929 ft 202 kts 25°
2026-05-04 08:06 -34.27248 151.21783 4667 ft 199 kts 24°
2026-05-04 08:06 -34.26031 151.22612 4287 ft 199 kts 23°
2026-05-04 08:08 -34.17768 151.23616 2996 ft 167 kts 346°
2026-05-04 08:08 -34.16626 151.23305 2992 ft 167 kts 346°
2026-05-04 08:10 -34.07564 151.20956 2205 ft 160 kts 348°
2026-05-04 08:11 -34.06491 151.20677 1994 ft 152 kts 348°
2026-05-04 08:11 -34.04474 151.20155 1620 ft 141 kts 348°
2026-05-04 08:11 -34.03556 151.19917 1424 ft 133 kts 349°
2026-05-04 08:12 -34.02638 151.19678 1259 ft 135 kts 349°
2026-05-04 08:12 -34.01714 151.19438 1089 ft 137 kts 349°
2026-05-04 08:12 -34.00773 151.19192 907 ft 139 kts 349°
2026-05-04 08:12 -33.99812 151.18948 720 ft 140 kts 350°
2026-05-04 08:13 -33.98855 151.18695 546 ft 142 kts 349°
2026-05-04 08:13 -33.97881 151.18449 359 ft 143 kts 348°
2026-05-04 08:13 -33.96895 151.18187 150 ft 145 kts 348°
2026-05-04 08:13 -33.95911 151.17934 37 ft 135 kts 349°
2026-05-04 08:14 -33.95188 151.17744 37 ft 79 kts 348°
2026-05-04 08:14 -33.94787 151.17642 37 ft 48 kts 348°
2026-05-04 08:14 -33.94539 151.17549 37 ft 31 kts 335°
2026-05-04 08:16 -33.94272 151.17308 37 ft 0 kts 340°
2026-05-04 08:16 -33.94260 151.17303 37 ft 4 kts 341°
2026-05-04 08:17 -33.94222 151.17290 37 ft 7 kts 347°
2026-05-04 08:17 -33.94167 151.17274 37 ft 8 kts 347°
2026-05-04 08:17 -33.94105 151.17259 37 ft 7 kts 348°
2026-05-04 08:17 -33.94038 151.17242 37 ft 11 kts 348°
2026-05-04 08:19 -33.93347 151.17058 37 ft 14 kts 335°
2026-05-04 08:19 -33.93286 151.16994 37 ft 11 kts 310°
2026-05-04 08:20 -33.93219 151.16952 37 ft 10 kts 348°
2026-05-04 08:20 -33.93151 151.16936 37 ft 7 kts 348°
2026-05-04 08:20 -33.93083 151.16919 37 ft 11 kts 349°
2026-05-04 08:20 -33.93039 151.16899 37 ft 4 kts 304°
2026-05-04 08:21 -33.93035 151.16864 37 ft 5 kts 274°
2026-05-04 08:21 -33.93037 151.16824 37 ft 4 kts 260°
2026-05-04 08:21 -33.93043 151.16792 37 ft 2 kts 257°
2026-05-04 08:21 -33.93044 151.16785 37 ft 0 kts 257°